Flag for U.S.A. Weather past 2 weeks in Breckenridge, Colorado, U.S.A.

Now
55 °F

Passing clouds.


Feels Like: 52 °F
Forecast: 50 / 77 °F
Wind: 15 mph from West

Location: Copper Mountain - Red Cliff Pass

Current Time: Aug 29, 2015 at 10:39:50 PM

Latest Report: Aug 29, 2015 at 9:53 PM


Visibility: 10 mi

Pressure: 30.69 "Hg (21.65 "Hg at 2921m altitude)

Humidity: 44%

Dew point: 34 °F

Location of BreckenridgeLocation

Historic Weather in Breckenridge — Graph

°F

Breckenridge temperature yesterday

Maximum temperature yesterday: 61 °F (at 4:14 PM)
Minimum temperature yesterday: 43 °F (at 5:54 AM)
Average temperature yesterday: 51 °F

Past Weeks' High & Low Weather Summary

 TemperatureHumidityPressure
High73 °F (Aug 25, 2:34 PM)87% (Aug 27, 7:34 PM)30.82 "Hg (Aug 27, 7:34 PM)
Low36 °F (Aug 19, 6:14 AM)12% (Aug 21, 3:54 PM)30.35 "Hg (Aug 18, 6:14 PM)
Average54 °F42%30.63 "Hg
* Reported Aug 14 8:14 PM — Aug 29 8:53 PM, Breckenridge, Weather by CustomWeather, © 2015

Note: Actual official high and low records may vary slightly from our data, if they occured in-between our weather recording intervals... More about our weather records

Advertising

Breckenridge weather history for previous 24 hours

 ConditionsComfort  
Time TempWeatherWind HumidityBarometerVisibility
8:53 PM
Sat, Aug 29
59 °FPassing clouds.12 mph42%30.68 "Hg10 mi
8:33 PM59 °FCloudy.8 mph42%30.68 "Hg10 mi
8:13 PM59 °FOvercast.7 mph39%30.68 "Hg10 mi
7:53 PM59 °FMostly cloudy.17 mph39%30.67 "Hg10 mi
7:33 PM59 °FOvercast.16 mph39%30.67 "Hg10 mi
7:13 PM59 °FMostly cloudy.20 mph36%30.67 "Hg10 mi
6:53 PM61 °FPartly sunny.18 mph34%30.67 "Hg10 mi
6:33 PM63 °FBroken clouds.16 mph32%30.67 "Hg10 mi
6:13 PM63 °FScattered clouds.14 mph32%30.67 "Hg10 mi
5:53 PM61 °FThundershowers. Scattered clouds.8 mph34%30.68 "Hg10 mi
5:33 PM61 °FSunny.9 mph34%30.68 "Hg10 mi
5:13 PM61 °FSunny.10 mph34%30.68 "Hg10 mi
4:53 PM61 °FSunny.14 mph34%30.69 "Hg10 mi
4:33 PM61 °FScattered clouds.14 mph36%30.69 "Hg10 mi
3:53 PM61 °FScattered clouds.21 mph36%30.69 "Hg10 mi
3:33 PM64 °FSunny.20 mph30%30.70 "Hg10 mi
3:13 PM63 °FSunny.17 mph32%30.71 "Hg10 mi
2:53 PM63 °FScattered clouds.15 mph32%30.71 "Hg10 mi
2:33 PM61 °FSunny.15 mph34%30.72 "Hg10 mi
2:14 PM63 °FScattered clouds.14 mph30%30.72 "Hg10 mi
1:53 PM59 °FMostly cloudy.20 mph36%30.72 "Hg10 mi
1:33 PM59 °FMostly cloudy.3 mph36%30.73 "Hg10 mi
1:13 PM59 °FOvercast.18 mph36%30.73 "Hg10 mi
12:53 PM61 °FPartly sunny.20 mph31%30.73 "Hg10 mi
12:33 PM61 °FScattered clouds.8 mph29%30.74 "Hg10 mi
12:13 PM59 °FOvercast.13 mph29%30.74 "Hg10 mi
11:53 AM59 °FPartly sunny.10 mph34%30.75 "Hg10 mi
11:33 AM61 °FScattered clouds.8 mph29%30.75 "Hg10 mi
11:13 AM59 °FScattered clouds.18 mph36%30.75 "Hg10 mi
10:53 AM55 °FScattered clouds.12 mph41%30.75 "Hg10 mi
10:34 AM59 °FScattered clouds.8 mph45%30.75 "Hg10 mi
10:13 AM59 °FScattered clouds.8 mph45%30.74 "Hg10 mi
9:53 AM59 °FSunny.8 mph45%30.74 "Hg10 mi
9:34 AM59 °FSunny.7 mph42%30.74 "Hg10 mi
9:14 AM55 °FSunny.8 mph47%30.73 "Hg10 mi
8:53 AM55 °FSunny.9 mph47%30.73 "Hg10 mi
8:33 AM54 °FSunny.12 mph51%30.73 "Hg10 mi
8:13 AM54 °FSunny.13 mph54%30.73 "Hg10 mi
7:53 AM52 °FSunny.13 mph54%30.73 "Hg10 mi
7:34 AM52 °FSunny.14 mph54%30.72 "Hg10 mi
7:13 AM50 °FClear.17 mph54%30.72 "Hg10 mi
6:54 AM48 °FClear.16 mph58%30.72 "Hg10 mi
6:14 AM46 °FClear.20 mph62%30.71 "Hg10 mi
5:54 AM48 °FClear.21 mph58%30.70 "Hg10 mi
5:33 AM48 °FClear.21 mph58%30.70 "Hg10 mi
5:13 AM46 °FClear.24 mph62%30.71 "Hg10 mi
4:54 AM46 °FClear.23 mph62%30.71 "Hg10 mi
4:13 AM48 °FClear.23 mph58%30.71 "Hg10 mi
3:53 AM48 °FClear.21 mph58%30.71 "Hg10 mi
3:34 AM48 °FClear.20 mph54%30.71 "Hg10 mi
3:14 AM46 °FClear.23 mph62%30.71 "Hg10 mi
2:54 AM46 °FClear.21 mph62%30.71 "Hg10 mi
1:34 AM48 °FClear.18 mph58%30.73 "Hg10 mi
1:13 AM48 °FClear.18 mph58%30.73 "Hg10 mi
12:54 AM50 °FClear.15 mph58%30.74 "Hg10 mi
11:54 PM
Fri, Aug 28
50 °FClear.13 mph58%30.74 "Hg10 mi
11:33 PM52 °FClear.9 mph50%30.75 "Hg10 mi
11:14 PM52 °FClear.13 mph50%30.75 "Hg10 mi
10:54 PM52 °FClear.8 mph50%30.75 "Hg10 mi
10:33 PM50 °FPassing clouds.7 mph54%30.75 "Hg10 mi
Weather by CustomWeather, © 2015

See weather overviewHow to use our weather pages